Regional Weather Roundup
Issued by NWS Newport/Morehead, NC

Current Version | Previous Version | Graphics & Text | Print | Product List | Glossary Off
Versions: 1 2 3 4 5 6 7 8 9 10 11 12 13 14 15 16 17 18 19 20 21 22 23 24 25 26 27 28 29 30 31 32 33 34 35 36 37 38 39 40 41 42 43 44 45 46 47 48 49 50

000
ASUS42 KMHX 210822
RWRMHX
WEATHER ROUNDUP FOR EASTERN NORTH CAROLINA
NATIONAL WEATHER SERVICE NEWPORT/MOREHEAD CITY NC
400 AM EDT THU AUG 21 2014

NOTE: "FAIR" INDICATES FEW OR NO CLOUDS BELOW 12,000 FEET
WITH NO SIGNIFICANT WEATHER AND/OR OBSTRUCTIONS TO VISIBILITY

NCZ015>017-031-032-045>047-102-103-210900-
NORTH COAST

CITY           SKY/WX    TMP DP  RH WIND       PRES   REMARKS
EDENTON        MOCLDY    76  75  96 S3        29.99S
ELIZABETH CITY PTCLDY    75  72  90 SE3       29.99S
KITTY HAWK     PTSUNNY   75  73  92 SE3       29.98F
MANTEO         CLOUDY    75  73  94 CALM      30.00S

$$

NCZ045>047-081-094-103-104-210900-
CENTRAL COAST

CITY           SKY/WX    TMP DP  RH WIND       PRES   REMARKS
FRISCO         CLEAR     78  74  87 S5        30.00S
SWANQUARTER      N/A     79 N/A N/A SW6       29.94S

$$

NCZ095-097-098-100-101-210900-
SOUTHERN COAST

CITY           SKY/WX    TMP DP  RH WIND       PRES   REMARKS
BEAUFORT       CLEAR     80  77  90 SW6       29.99F
CEDAR ISLAND     N/A     77 N/A N/A S2        30.03S
JACKSONVILLE   PTCLDY    75  74  96 S5        29.99F FOG
NEWPORT        NOT AVBL
PINEY ISLAND   SUNNY     78  77  96 S3        29.98F FOG
WILMINGTON     CLEAR     75  73  93 CALM      29.99F


$$

NCZ011>013-027>030-043-044-078>080-089-090>093-098-210900-
COASTAL PLAIN

CITY           SKY/WX    TMP DP  RH WIND       PRES   REMARKS
AHOSKIE        PTCLDY    72  71  96 CALM      29.99S
CLINTON        CLEAR     73  73 100 CALM      29.99R FOG
ELIZABETHTOWN  CLEAR     77  75  94 SW3       29.98F
GOLDSBORO      PTCLDY    74  74  98 CALM      29.96F
GREENVILLE     PTCLDY    73  73 100 SW3       30.00R FOG
HAVELOCK       PTCLDY    75  74  96 S6        30.00F FOG
KENANSVILLE    CLEAR     71  70  96 CALM      29.99F FOG
KINSTON        PTCLDY    74  73  97 CALM      29.99S FOG
NEW BERN       PTCLDY    77  74  90 CALM      29.99F FOG
RICHLANDS      CLEAR     72  70  94 CALM      29.99S
ROANOKE RAPIDS NOT AVBL
ROCKY MOUNT    PTCLDY    73  71  93 CALM      29.98F FOG
WASHINGTON     MOCLDY    74  73  96 CALM      29.98S
WHITEVILLE     CLEAR     74  73  95 CALM      29.98F FOG

$$

AMZ130-135-150-152-154-156-158-170-250-252-270-ANZ085-086-088-633-658-670-210900-
MARINE OBSERVATIONS

STATION/POSITION TIME  TEMP    WIND        PRES    WAVE   SWELL
                       AIR SEA DIR/SP/G            HT/PER HT/PER
                 (UTC) (F)     (DEG/KT/KT) (MB)    (FT/S) (FT/S)
CHESAPEAKE LIGHT 0800   76     160/ 10/ 11 1016.1
BUOY 44014       0800   76 78  170/  2/  4 1015.7    3/ 6   2/ 6
DUCK             0800   78 78  140/  8/  9 1014.9
2E DUCK          0800                        N/A     2/ 6
OREGON INLET     0800   76 81  130/  4/  5 1015.6
BUOY 44095       0800      80                N/A     2/ 6
20E OREGON INLET NOT AVBL
HATTERAS CG      0800   80 81  180/  2/  5 1016.1
DIAMOND BUOY     0800   78     200/  4/  6 1015.6    2/ 7   2/ 7
CAPE LOOKOUT     0800   80     210/  4/  5 1015.6
BEAUFORT LAB     0800   80 82  210/  5/  6 1015.3
30 SE NEW RIVER  0800   81 82  220/  6/  8 1015.4    3/ 6   2/ 6
5 SE WRIGHTSVILL 0800   78 82  140/  4/  6   N/A
BUOY 41002       0730   81 81  260/ 14/ 17 1017.5    4/ 6   2/ 9
BUOY 41004       0800   83 83  230/ 12/ 14 1015.3    3/ 5   2/ 8

$$



USA.gov is the U.S. government's official web portal to all federal, state and local government web resources and services.